Dewpoint
60 60 61 62 62 63 63 63 65 65 65 64 64 64 64 64 64 63 62 62 62 62
63 62 61 63 64 64 64 64 65 66 66 66 66 66 65 64 64 64 64 63 63 63
60 62 63 64 64 65 65 66 65 64 65 63 63 65 64 65 65 65 64 64 63 63
54 55 56 58 60 62 62 61 60 61 63 63 59 60 56 59 65 64 65 64 64 63
49 50 51 51 52 54 57 59 61 62 63 64 65 65 65 63 64 64 63 64 64 64
40 42 47 49 48 49 49 51 54 56 58 59 60 62 63 64 64 64 64 64 64 64
34 37 39 46 49 47 47 46 47 49 51 53 56 56 56 57 60 62 63 64 64 64
33 33 33 34 39 43 45 45 45 45 46 47 50 49 49 52 54 56 59 61 63 64
33 33 32 32 33 32 36 41 43 43 43 43 44 44 43 46 50 52 54 56 58 59
34 34 33 33 32 31 31 37 39 42 42 42 43 42 42 43 47 48 50 51 53 54
36 36 36 36 34 33 33 35 37 39 42 42 41 41 42 43 44 45 47 48 48 50
35 35 35 35 36 36 34 34 35 39 40 40 40 39 39 40 42 42 42 44 46 46
35 36 37 38 37 36 36 35 36 36 38 40 40 39 38 39 41 39 41 42 43 45
36 38 39 38 37 37 36 36 36 37 38 39 40 40 39 39 40 40 40 40 40 42
Wind_Speed
20 19 18 17 16 16 18 15 10 13 16 18 19 18 16 18 19 21 23 25 23 19
15 17 15 12 10 15 15 15 17 17 18 16 13 14 18 21 23 20 22 22 22 18
15 9 4 9 11 10 10 9 4 6 11 19 21 22 18 19 21 20 19 19 18 21
20 19 18 15 10 4 3 9 14 13 22 24 17 19 11 19 30 17 20 19 20 25
18 18 18 17 15 14 12 12 12 2 16 15 11 12 17 24 25 31 26 25 26 27
19 17 15 14 13 13 13 12 8 6 7 7 7 3 6 15 20 23 24 23 23 24
17 15 15 13 12 11 9 10 11 11 9 8 7 9 8 5 7 14 17 18 19 19
16 14 13 13 11 9 8 7 7 9 9 10 10 9 10 10 10 10 12 13 14 16
19 18 17 14 13 11 9 6 4 5 5 8 8 9 9 7 7 8 9 11 11 12
19 21 20 19 19 19 15 10 8 4 4 5 5 6 8 8 7 9 10 12 12 12
18 19 22 21 21 21 14 14 11 8 6 7 6 5 8 8 7 9 9 9 12 13
15 18 20 23 21 20 17 18 18 12 10 9 11 6 5 4 5 8 11 9 8 10
16 17 17 18 19 15 17 22 18 21 16 14 17 11 7 4 5 9 10 11 10 10
15 15 15 16 16 16 18 19 20 20 19 15 17 18 11 7 6 8 11 11 13 8
Wind_Direction
215 219 221 209 198 195 197 203 191 194 202 209 217 220 215 215 218 221 220 223 221 224
212 217 214 209 192 195 183 185 186 192 208 220 229 229 222 225 228 224 230 230 230 217
42 43 111 171 187 180 151 147 152 313 254 211 209 225 239 245 239 224 229 233 227 223
45 44 54 54 39 15 256 221 218 217 268 249 234 253 258 274 275 209 220 227 228 233
55 55 55 51 45 35 34 43 54 118 233 253 254 232 226 227 212 245 244 232 229 235
37 45 54 65 63 55 47 43 46 26 18 6 8 336 251 233 228 231 229 228 225 228
23 29 37 44 53 55 57 50 45 46 41 27 27 33 16 351 293 247 234 236 237 238
358 5 11 20 26 31 41 52 52 39 31 26 42 34 15 353 334 315 294 272 258 251
356 350 349 347 349 353 360 12 45 38 24 22 20 21 27 11 329 323 319 309 298 285
347 343 345 341 337 333 332 331 336 334 339 349 353 354 357 356 348 338 339 323 313 295
348 342 339 339 335 326 320 305 295 279 274 299 292 309 323 340 342 342 330 324 319 305
324 324 324 323 327 326 317 311 299 293 282 265 270 241 260 302 339 322 307 306 312 311
312 308 305 310 319 323 323 309 306 298 282 282 278 273 274 298 309 310 316 308 307 313
308 305 312 313 314 318 322 316 305 294 287 273 256 270 259 252 268 284 291 292 303 301